Time,TemperatureF,DewpointF,PressureIn,WindDirection,WindDirectionDegrees,WindSpeedMPH,WindSpeedGustMPH,Humidity,HourlyPrecipIn,Conditions,Clouds,dailyrainin,SoftwareType,DateUTC
2013-01-31 07:01:00,33.0,24.0,30.03,SSW,203,0.0,1.0,69,0.00,,,0.00,,2013-01-31 14:01:00,
2013-01-31 07:11:00,33.0,24.0,30.03,SSW,203,0.0,1.0,69,0.00,,,0.00,,2013-01-31 14:11:00,
2013-01-31 07:21:00,34.0,25.0,30.00,ENE,68,1.0,4.0,69,0.00,,,0.00,,2013-01-31 14:21:00,
2013-01-31 07:31:00,33.0,24.0,30.00,SSE,158,0.0,2.0,69,0.00,,,0.00,,2013-01-31 14:31:00,
2013-01-31 07:41:00,33.0,24.0,30.00,SSE,158,0.0,2.0,69,0.00,,,0.00,,2013-01-31 14:41:00,
2013-01-31 07:52:00,33.0,24.0,30.00,NW,315,2.0,2.0,69,0.00,,,0.00,,2013-01-31 14:52:00,
2013-01-31 08:02:00,33.0,24.0,30.00,SW,225,2.0,2.0,69,0.00,,,0.00,,2013-01-31 15:02:00,
2013-01-31 08:11:00,33.0,24.0,30.00,SSE,158,1.0,2.0,70,0.00,,,0.00,,2013-01-31 15:11:00,
2013-01-31 08:21:00,33.0,24.0,30.00,SSE,158,1.0,2.0,70,0.00,,,0.00,,2013-01-31 15:21:00,
2013-01-31 08:31:00,36.0,28.0,30.00,NE,45,1.0,4.0,72,0.00,,,0.00,,2013-01-31 15:31:00,
2013-01-31 08:42:00,36.0,28.0,30.00,NE,45,1.0,4.0,72,0.00,,,0.00,,2013-01-31 15:42:00,
2013-01-31 08:52:00,41.0,30.0,30.00,NNE,23,1.0,3.0,64,0.00,,,0.00,,2013-01-31 15:52:00,
2013-01-31 09:02:00,40.0,28.0,30.00,East,90,0.0,3.0,63,0.00,,,0.00,,2013-01-31 16:02:00,
2013-01-31 09:21:00,43.0,30.0,29.96,East,90,2.0,4.0,59,0.00,,,0.00,,2013-01-31 16:21:00,
2013-01-31 09:32:00,47.0,31.0,30.00,East,90,3.0,4.0,54,0.00,,,0.00,,2013-01-31 16:32:00,
2013-01-31 09:41:00,47.0,31.0,30.00,East,90,3.0,4.0,54,0.00,,,0.00,,2013-01-31 16:41:00,
2013-01-31 09:52:00,50.0,31.0,29.96,ESE,113,1.0,3.0,48,0.00,,,0.00,,2013-01-31 16:52:00,
2013-01-31 10:01:00,52.0,31.0,29.96,SE,135,2.0,3.0,44,0.00,,,0.00,,2013-01-31 17:01:00,
2013-01-31 10:22:00,54.0,30.0,29.93,ESE,113,2.0,4.0,39,0.00,,,0.00,,2013-01-31 17:22:00,
2013-01-31 10:31:00,56.0,30.0,29.93,SW,225,2.0,3.0,37,0.00,,,0.00,,2013-01-31 17:31:00,
2013-01-31 10:42:00,56.0,30.0,29.93,SW,225,2.0,3.0,37,0.00,,,0.00,,2013-01-31 17:42:00,
2013-01-31 10:53:00,57.0,30.0,29.93,NNW,338,2.0,4.0,36,0.00,,,0.00,,2013-01-31 17:53:00,
2013-01-31 11:02:00,57.0,30.0,29.93,WNW,293,3.0,4.0,36,0.00,,,0.00,,2013-01-31 18:02:00,